When you browse on this site, cookies collect data to enhance your experience and personalize the content and advertising you see.
Visit our Privacy Policy to learn more. By continuing to use the site, you agree to this use of cookies and data.
  • In Portugal
  • List of Countries
  • For 7 days
  • Water Temperature
  • Satellite Maps
  • Weather Map
  • Weather Widgets
  • user-avatar
    Login

    Hourly Weather Mahilyow

    Today, 23 May, Thursday

    Time Temperature Precipitation Wind Pressure Humidity
    00:00 +15°C° 0 mm 1 mps 742 mmHg 72%
    01:00 +15°C° 0 mm 1 mps 742 mmHg 74%
    02:00 +15°C° 0 mm 1 mps 742 mmHg 75%
    03:00 +15°C° 0 mm 1 mps 742 mmHg 76%
    04:00 +15°C° 0 mm 1 mps 742 mmHg 76%
    05:00 +15°C° 0 mm 1 mps 742 mmHg 77%
    06:00 +18°C° 0 mm 1 mps 742 mmHg 70%
    07:00 +20°C° 0 mm 1 mps 742 mmHg 63%
    08:00 +23°C° 0 mm 1 mps 742 mmHg 57%
    09:00 +24°C° 0 mm 1 mps 742 mmHg 51%
    10:00 +25°C° 0 mm 2 mps 742 mmHg 45%
    11:00 +26°C° 0 mm 2 mps 742 mmHg 40%
    12:00 +26°C° 0 mm 2 mps 742 mmHg 42%
    13:00 +26°C° 0 mm 2 mps 742 mmHg 45%
    14:00 +26°C° 0 mm 2 mps 742 mmHg 47%
    15:00 +25°C° 0 mm 2 mps 742 mmHg 48%
    16:00 +25°C° 0 mm 2 mps 742 mmHg 49%
    17:00 +25°C° 0 mm 2 mps 741 mmHg 51%
    18:00 +24°C° 0 mm 2 mps 741 mmHg 55%
    19:00 +23°C° 0 mm 2 mps 742 mmHg 59%
    20:00 +20°C° 0 mm 2 mps 742 mmHg 63%
    21:00 +19°C° 0 mm 2 mps 742 mmHg 67%
    22:00 +18°C° 0 mm 2 mps 742 mmHg 70%
    23:00 +17°C° 0 mm 2 mps 742 mmHg 74%

    Tomorrow, 24 May, Friday

    Time Temperature Precipitation Wind Pressure Humidity
    00:00 +16°C° 0 mm 2 mps 742 mmHg 77%
    01:00 +16°C° 0 mm 1 mps 742 mmHg 80%
    02:00 +15°C° 0 mm 1 mps 742 mmHg 83%
    03:00 +15°C° 0 mm 1 mps 742 mmHg 83%
    04:00 +15°C° 0 mm 1 mps 742 mmHg 84%
    05:00 +15°C° 0 mm 1 mps 742 mmHg 84%
    06:00 +19°C° 0 mm 1 mps 742 mmHg 77%
    07:00 +21°C° 0 mm 1 mps 742 mmHg 70%
    08:00 +23°C° 0 mm 1 mps 743 mmHg 63%
    09:00 +24°C° 0.1 mm 1 mps 743 mmHg 57%
    10:00 +26°C° 0.1 mm 1 mps 742 mmHg 51%
    11:00 +27°C° 0.1 mm 1 mps 742 mmHg 45%
    12:00 +27°C° 0 mm 1 mps 742 mmHg 46%
    13:00 +27°C° 0 mm 1 mps 742 mmHg 46%
    14:00 +27°C° 0 mm 1 mps 742 mmHg 47%
    15:00 +26°C° 0 mm 1 mps 742 mmHg 50%
    16:00 +25°C° 0 mm 1 mps 742 mmHg 53%
    17:00 +25°C° 0 mm 1 mps 742 mmHg 56%
    18:00 +23°C° 0.1 mm 1 mps 742 mmHg 62%
    19:00 +22°C° 0.1 mm 1 mps 742 mmHg 68%
    20:00 +21°C° 0.1 mm 1 mps 742 mmHg 73%
    21:00 +20°C° 0 mm 1 mps 741 mmHg 77%
    22:00 +19°C° 0 mm 1 mps 741 mmHg 81%
    23:00 +18°C° 0 mm 1 mps 741 mmHg 84%

    Day after tomorrow, 25 May, Saturday

    Time Temperature Precipitation Wind Pressure Humidity
    00:00 +16°C° 0.1 mm 1 mps 741 mmHg 87%
    01:00 +16°C° 0.1 mm 1 mps 741 mmHg 89%
    02:00 +15°C° 0.1 mm 1 mps 741 mmHg 91%
    03:00 +15°C° 0 mm 1 mps 741 mmHg 92%
    04:00 +15°C° 0 mm 1 mps 741 mmHg 92%
    05:00 +16°C° 0 mm 1 mps 740 mmHg 93%
    06:00 +17°C° 0 mm 2 mps 741 mmHg 87%
    07:00 +19°C° 0 mm 2 mps 741 mmHg 82%
    08:00 +20°C° 0 mm 2 mps 741 mmHg 77%
    09:00 +21°C° 0.5 mm 2 mps 741 mmHg 73%
    10:00 +23°C° 0.5 mm 2 mps 740 mmHg 69%
    11:00 +24°C° 0.5 mm 2 mps 740 mmHg 65%
    12:00 +24°C° 0.3 mm 2 mps 740 mmHg 65%
    13:00 +24°C° 0.3 mm 3 mps 740 mmHg 65%
    14:00 +24°C° 0.3 mm 3 mps 740 mmHg 65%
    15:00 +24°C° 0.2 mm 3 mps 740 mmHg 65%
    16:00 +22°C° 0.2 mm 3 mps 739 mmHg 66%
    17:00 +22°C° 0.2 mm 3 mps 739 mmHg 66%
    18:00 +21°C° 0.1 mm 3 mps 739 mmHg 70%
    19:00 +19°C° 0.1 mm 3 mps 740 mmHg 73%
    20:00 +17°C° 0.1 mm 2 mps 740 mmHg 77%
    21:00 +16°C° 0 mm 2 mps 740 mmHg 79%
    22:00 +14°C° 0 mm 3 mps 740 mmHg 81%
    23:00 +13°C° 0 mm 3 mps 740 mmHg 83%

    26 May, Sunday

    Time Temperature Precipitation Wind Pressure Humidity
    00:00 +13°C° 0 mm 3 mps 740 mmHg 86%
    01:00 +12°C° 0 mm 3 mps 740 mmHg 90%
    02:00 +12°C° 0 mm 2 mps 741 mmHg 94%
    03:00 +12°C° 0 mm 2 mps 741 mmHg 93%
    04:00 +12°C° 0 mm 2 mps 741 mmHg 92%
    05:00 +10°C° 0 mm 2 mps 742 mmHg 91%
    06:00 +13°C° 0 mm 2 mps 742 mmHg 83%
    07:00 +13°C° 0 mm 3 mps 742 mmHg 74%
    08:00 +14°C° 0 mm 3 mps 742 mmHg 65%
    09:00 +16°C° 0 mm 3 mps 742 mmHg 60%
    10:00 +18°C° 0 mm 4 mps 742 mmHg 54%
    11:00 +19°C° 0 mm 4 mps 742 mmHg 49%
    12:00 +20°C° 0 mm 4 mps 741 mmHg 48%
    13:00 +20°C° 0 mm 4 mps 741 mmHg 47%
    14:00 +21°C° 0 mm 5 mps 741 mmHg 46%
    15:00 +21°C° 0 mm 5 mps 741 mmHg 48%
    16:00 +21°C° 0 mm 5 mps 741 mmHg 50%
    17:00 +21°C° 0 mm 5 mps 741 mmHg 52%
    18:00 +19°C° 0 mm 4 mps 741 mmHg 60%
    19:00 +17°C° 0 mm 3 mps 740 mmHg 67%
    20:00 +16°C° 0 mm 2 mps 740 mmHg 75%
    21:00 +14°C° 0.2 mm 3 mps 740 mmHg 79%
    22:00 +13°C° 0.2 mm 3 mps 740 mmHg 83%
    23:00 +13°C° 0.2 mm 4 mps 741 mmHg 87%

    27 May, Monday

    Time Temperature Precipitation Wind Pressure Humidity
    00:00 +12°C° 0 mm 4 mps 741 mmHg 87%
    01:00 +11°C° 0 mm 3 mps 741 mmHg 87%
    02:00 +10°C° 0 mm 3 mps 741 mmHg 88%
    03:00 +10°C° 0 mm 3 mps 742 mmHg 89%
    04:00 +10°C° 0 mm 3 mps 742 mmHg 91%
    05:00 +8°C° 0 mm 4 mps 742 mmHg 92%
    06:00 +10°C° 0 mm 4 mps 743 mmHg 84%
    07:00 +12°C° 0 mm 5 mps 743 mmHg 75%
    08:00 +13°C° 0 mm 5 mps 743 mmHg 66%
    09:00 +14°C° 0 mm 5 mps 744 mmHg 61%
    10:00 +15°C° 0 mm 5 mps 744 mmHg 55%
    11:00 +16°C° 0 mm 5 mps 744 mmHg 50%
    12:00 +17°C° 0 mm 5 mps 744 mmHg 47%
    13:00 +19°C° 0 mm 5 mps 745 mmHg 44%
    14:00 +20°C° 0 mm 5 mps 745 mmHg 42%
    15:00 +20°C° 0 mm 5 mps 745 mmHg 44%
    16:00 +20°C° 0 mm 4 mps 745 mmHg 46%
    17:00 +20°C° 0 mm 4 mps 745 mmHg 48%
    18:00 +18°C° 0 mm 3 mps 745 mmHg 57%
    19:00 +16°C° 0 mm 2 mps 745 mmHg 66%
    20:00 +15°C° 0 mm 1 mps 745 mmHg 74%
    21:00 +14°C° 0 mm 1 mps 745 mmHg 77%
    22:00 +14°C° 0 mm 1 mps 745 mmHg 79%
    23:00 +13°C° 0 mm 1 mps 745 mmHg 81%

    28 May, Tuesday

    Time Temperature Precipitation Wind Pressure Humidity
    00:00 +13°C° 0 mm 1 mps 745 mmHg 83%
    01:00 +13°C° 0 mm 2 mps 745 mmHg 84%
    02:00 +13°C° 0 mm 2 mps 745 mmHg 85%
    03:00 +13°C° 0 mm 2 mps 745 mmHg 83%
    04:00 +13°C° 0 mm 3 mps 745 mmHg 81%
    05:00 +13°C° 0 mm 3 mps 745 mmHg 79%
    06:00 +15°C° 0.1 mm 4 mps 744 mmHg 80%
    07:00 +17°C° 0.1 mm 4 mps 744 mmHg 80%
    08:00 +17°C° 0.1 mm 5 mps 744 mmHg 81%
    09:00 +17°C° 2.2 mm 5 mps 743 mmHg 85%
    10:00 +17°C° 2.2 mm 5 mps 743 mmHg 89%
    11:00 +17°C° 2.2 mm 5 mps 743 mmHg 94%
    12:00 +21°C° 0 mm 6 mps 742 mmHg 80%
    13:00 +23°C° 0 mm 6 mps 742 mmHg 66%
    14:00 +27°C° 0 mm 7 mps 742 mmHg 52%
    15:00 +27°C° 0.1 mm 7 mps 741 mmHg 55%
    16:00 +27°C° 0.1 mm 7 mps 741 mmHg 58%
    17:00 +26°C° 0.1 mm 6 mps 741 mmHg 61%
    18:00 +24°C° 1.5 mm 6 mps 741 mmHg 69%
    19:00 +22°C° 1.5 mm 5 mps 741 mmHg 76%
    20:00 +20°C° 1.5 mm 5 mps 741 mmHg 84%
    21:00 +20°C° 0.7 mm 5 mps 741 mmHg 86%
    22:00 +19°C° 0.7 mm 4 mps 741 mmHg 89%
    23:00 +19°C° 0.7 mm 4 mps 741 mmHg 91%
    Show more